CW0003 Weather Reports


Display with metric or nautical units.
time (UTC)temp
F
wind
direction
speed
MPH
gust
MPH
rain 1hr
in
rain 24hr
in
rain mn
in
humidity
%
barometer
mb
20171024015435 57 117 0.0 0.0 0.00 0.00 0.00 94 1020.1
20171024013933 57 117 0.0 0.0 0.00 0.00 0.00 94 1020.5
20171024012432 57 117 0.0 0.0 0.00 0.00 0.00 94 1020.2
20171024010932 57 117 0.0 0.0 0.00 0.00 0.00 94 1020.3
20171024005426 57 117 0.0 0.0 0.00 0.00 0.00 93 1020.5
20171024003925 58 117 0.0 0.0 0.00 0.00 0.00 93 1020.5
20171024002421 58 117 0.0 0.0 0.00 0.00 0.00 93 1020.5
20171024000923 58 117 0.0 0.0 0.00 0.00 0.00 93 1020.7
20171023235402 58 115 0.0 0.0 0.00 0.00 0.00 93 1020.6
20171023233859 59 114 0.0 0.0 0.00 0.00 0.00 92 1020.6
20171023232359 59 114 0.0 0.0 0.00 0.00 0.00 92 1020.6
20171023230853 59 114 0.0 0.0 0.00 0.00 0.00 91 1020.7
20171023225351 60 114 0.0 0.0 0.00 0.00 0.00 89 1020.8
20171023223849 60 113 0.0 0.0 0.00 0.00 0.00 89 1020.8
20171023222346 61 113 0.0 0.0 0.00 0.00 0.00 88 1020.8
20171023220844 62 113 0.0 0.0 0.00 0.00 0.00 87 1020.9
20171023215340 63 113 0.0 0.0 0.00 0.00 0.00 87 1021.0
20171023213837 64 112 0.0 0.0 0.00 0.00 0.00 86 1021.3
20171023212333 65 113 0.0 0.0 0.00 0.00 0.00 85 1021.4
20171023210834 66 111 0.0 0.0 0.00 0.00 0.00 84 1021.6
20171023205329 67 111 0.0 0.0 0.00 0.00 0.00 83 1021.5
20171023203824 67 111 0.0 0.0 0.00 0.00 0.00 82 1021.6
20171023202334 68 113 0.0 0.0 0.00 0.00 0.00 82 1021.8
20171023200818 68 82 0.0 0.0 0.00 0.00 0.00 83 1021.9
20171023195315 68 140 0.0 0.0 0.00 0.00 0.00 82 1021.9
20171023193813 68 184 0.0 0.0 0.00 0.00 0.00 83 1022.1
20171023192311 68 184 0.0 0.0 0.00 0.00 0.00 83 1022.4
20171023190806 68 201 0.0 0.0 0.00 0.00 0.00 81 1022.5
20171023185302 68 209 0.0 0.0 0.00 0.00 0.00 80 1022.5
20171023183800 67 226 0.0 0.0 0.00 0.00 0.00 81 1022.7
20171023182258 67 166 0.0 0.0 0.00 0.00 0.00 81 1023.0
20171023180751 66 214 0.0 0.0 0.00 0.00 0.00 82 1023.2
20171023175339 66 132 0.0 0.0 0.00 0.00 0.00 85 1023.3
20171023173743 65 184 0.0 0.0 0.00 0.00 0.00 86 1023.6
20171023172241 64 150 0.0 0.0 0.00 0.00 0.00 91 1023.7
20171023170734 63 191 0.0 0.0 0.00 0.00 0.00 92 1024.2
20171023165252 62 183 0.0 0.0 0.00 0.00 0.00 94 1024.3
20171023163729 61 169 0.0 0.0 0.00 0.00 0.00 94 1024.7
20171023162216 60 175 0.0 0.0 0.00 0.00 0.00 94 1025.0
20171023160718 60 173 0.0 0.0 0.00 0.00 0.00 94 1025.5
20171023155209 59 178 0.0 0.0 0.00 0.00 0.00 95 1025.6
20171023153703 59 202 0.0 0.0 0.00 0.00 0.00 96 1025.7
20171023152158 58 113 0.0 0.0 0.00 0.00 0.00 96 1025.8
20171023150708 58 113 0.0 0.0 0.00 0.00 0.00 96 1025.8
20171023145207 57 109 0.0 0.0 0.00 0.00 0.00 96 1026.2
20171023143643 56 109 0.0 0.0 0.00 0.00 0.00 97 1026.5
20171023142136 56 109 0.0 0.0 0.00 0.00 0.00 96 1026.7
20171023140635 55 109 0.0 0.0 0.00 0.00 0.00 96 1027.0
20171023135131 55 109 0.0 0.0 0.00 0.00 0.00 96 1027.1
20171023133630 55 109 0.0 0.0 0.00 0.00 0.00 96 1027.1
20171023132121 54 109 0.0 0.0 0.00 0.00 0.00 96 1027.2
20171023130618 54 109 0.0 0.0 0.00 0.00 0.00 95 1027.4
20171023125127 54 109 0.0 0.0 0.00 0.00 0.00 95 1027.6
20171023123617 53 109 0.0 0.0 0.00 0.00 0.00 95 1027.7
20171023122215 53 109 0.0 0.0 0.00 0.00 0.00 95 1027.6
20171023120708 53 110 0.0 0.0 0.00 0.00 0.00 94 1027.4
20171023115207 53 110 0.0 0.0 0.00 0.00 0.00 94 1027.3
20171023113656 53 110 0.0 0.0 0.00 0.00 0.00 94 1027.3
20171023112156 53 110 0.0 0.0 0.00 0.00 0.00 94 1027.2
20171023110652 53 110 0.0 0.0 0.00 0.00 0.00 94 1027.0
20171023105149 53 110 0.0 0.0 0.00 0.00 0.00 94 1027.1
20171023103658 53 44 0.0 0.0 0.00 0.00 0.00 94 1027.1
20171023102206 53 44 0.0 0.0 0.00 0.00 0.00 94 1026.9
20171023100704 53 44 0.0 0.0 0.00 0.00 0.00 94 1027.0
20171023095142 53 44 0.0 0.0 0.00 0.00 0.00 94 1027.2
20171023093638 53 44 0.0 0.0 0.00 0.00 0.00 94 1027.1
20171023092141 53 30 0.0 0.0 0.00 0.00 0.00 93 1027.1
20171023090636 53 30 0.0 0.0 0.00 0.00 0.00 94 1027.1
20171023085131 54 30 0.0 0.0 0.00 0.00 0.00 93 1027.1
20171023083631 54 30 0.0 0.0 0.00 0.00 0.00 93 1027.2
20171023082127 54 30 0.0 0.0 0.00 0.00 0.00 94 1027.2
20171023080622 54 30 0.0 0.0 0.00 0.00 0.00 93 1027.0
20171023075131 54 30 0.0 0.0 0.00 0.00 0.00 94 1027.2
20171023073616 54 30 0.0 0.0 0.00 0.00 0.00 93 1027.1
20171023072114 54 28 0.0 0.0 0.00 0.00 0.00 94 1027.2
20171023070610 54 28 0.0 0.0 0.00 0.00 0.00 93 1027.4
20171023065112 54 28 0.0 0.0 0.00 0.00 0.00 93 1027.6
20171023063604 54 28 0.0 0.0 0.00 0.00 0.00 93 1027.5
20171023062122 55 28 0.0 0.0 0.00 0.00 0.00 93 1027.6
20171023060609 55 28 0.0 0.0 0.00 0.00 0.00 93 1027.6
20171023055056 55 28 0.0 0.0 0.00 0.00 0.00 93 1027.7
20171023053617 55 28 0.0 0.0 0.00 0.00 0.00 93 1027.9
20171023052043 55 28 0.0 0.0 0.00 0.00 0.00 93 1028.1
20171023050551 55 28 0.0 0.0 0.00 0.00 0.00 93 1028.3
20171023045037 55 28 0.0 0.0 0.00 0.00 0.00 93 1028.4
20171023043549 55 28 0.0 0.0 0.00 0.00 0.00 93 1028.4
20171023042041 55 28 0.0 0.0 0.00 0.00 0.00 93 1028.5
20171023040530 55 28 0.0 0.0 0.00 0.00 0.00 93 1028.5
20171023035025 55 28 0.0 0.0 0.00 0.00 0.00 93 1028.3
20171023033525 55 28 0.0 0.0 0.00 0.00 0.00 93 1028.2
20171023032022 55 28 0.0 0.0 0.00 0.00 0.00 93 1028.4
20171023030520 55 28 0.0 0.0 0.00 0.00 0.00 93 1028.6
20171023025017 55 28 0.0 0.0 0.00 0.00 0.00 93 1028.5
20171023023515 55 28 0.0 0.0 0.00 0.00 0.00 93 1028.8
20171023022015 55 28 0.0 0.0 0.00 0.00 0.00 93 1028.8
20171023020512 55 28 0.0 0.0 0.00 0.00 0.00 93 1028.8